Tracking 19575 objects as of 19-Feb-2019
HD Live streaming from Space Station
objects crossing your sky now

METEOR 2-5 DEB

Track METEOR 2-5 DEB now!
10-day predictions


NORAD ID: 28595
Int'l Code: 1979-095F
Perigee: 761.7 km
Apogee: 771.6 km
Inclination: 81.2 °
Period: 100.0 minutes
Semi major axis: 7137 km
RCS: 0.0147 m2 (small)
Launch date: October 31, 1979
Source: Commonwealth of Independent States (former USSR) (CIS)
Launch site: PLESETSK MISSILE AND SPACE COMPLEX (PKMTR)

Note: This is SATELLITE DEBRIS
aabbcc
Your satellite tracking list
Your tracking list is empty




NASA's NSSDC Master Catalog

Two Line Element Set (TLE):
1 28595U 79095F   19048.04470254 +.00001474 +00000-0 +46694-3 0  9995
2 28595 081.1894 175.9974 0006890 232.1916 127.8648 14.39691004218320
Source of the keplerian elements: AFSPC